This is the latest recevied weather packets stored in our database for station/object K6HFP. If no packets are shown the sender has not sent any weather packets the latest 10 day(s).
| Time | Temp. | Humidity | Pressure | Rain* | Wind** | Luminosity | Snow |
|---|---|---|---|---|---|---|---|
| 1778027769 | 15.56° C | 76% | 1013.5 hPa | 0 mm | - | 124 W/m² | - |
| 1778027465 | 15.56° C | 76% | 1013.5 hPa | 0 mm | - | 136 W/m² | - |
| 1778027160 | 15.56° C | 76% | 1013.5 hPa | 0 mm | - | 123 W/m² | - |
| 1778026857 | 15.56° C | 76% | 1013.5 hPa | 0 mm | - | 127 W/m² | - |
| 1778026553 | 15.56° C | 74% | 1013.4 hPa | 0 mm | - | 157 W/m² | - |
| 1778026250 | 15.56° C | 75% | 1013.3 hPa | 0 mm | - | 175 W/m² | - |
| 1778025948 | 15.56° C | 76% | 1013.5 hPa | 0 mm | - | 178 W/m² | - |
| 1778025645 | 15.56° C | 75% | 1013.3 hPa | 0 mm | - | 183 W/m² | - |
| 1778025343 | 15.56° C | 76% | 1013.4 hPa | 0 mm | - | 180 W/m² | - |
| 1778025040 | 15.56° C | 75% | 1013.3 hPa | 0 mm | - | 188 W/m² | - |
| 1778024737 | 15.56° C | 76% | 1013.4 hPa | 0 mm | - | 182 W/m² | - |
| 1778024433 | 15.56° C | 75% | 1013.4 hPa | 0 mm | - | 189 W/m² | - |
| 1778024131 | 15.56° C | 74% | 1013.4 hPa | 0 mm | - | 202 W/m² | - |
| 1778023828 | 15.56° C | 74% | 1013.5 hPa | 0 mm | - | 211 W/m² | - |
| 1778023526 | 16.11° C | 73% | 1013.4 hPa | 0 mm | - | 220 W/m² | - |
| 1778023223 | 16.11° C | 74% | 1013.3 hPa | 0 mm | - | 225 W/m² | - |
| 1778022920 | 16.11° C | 74% | 1013.6 hPa | 0 mm | - | 223 W/m² | - |
| 1778022619 | 16.11° C | 72% | 1013.7 hPa | 0 mm | - | 241 W/m² | - |
| 1778022316 | 16.11° C | 73% | 1013.5 hPa | 0 mm | - | 266 W/m² | - |
| 1778022012 | 16.11° C | 72% | 1013.7 hPa | 0 mm | - | 288 W/m² | - |
| 1778021709 | 16.11° C | 73% | 1013.8 hPa | 0 mm | - | 310 W/m² | - |
| 1778021405 | 16.11° C | 71% | 1013.6 hPa | 0 mm | - | 311 W/m² | - |
| 1778021102 | 16.11° C | 70% | 1013.8 hPa | 0 mm | - | 309 W/m² | - |
| 1778020799 | 16.11° C | 70% | 1013.9 hPa | 0 mm | - | 333 W/m² | - |
| 1778020496 | 16.11° C | 72% | 1013.9 hPa | 0 mm | - | 324 W/m² | - |
* Rain latest hour (hover to see other rain measurements)
** Current wind speed in m/s (hover to see current wind gust speed)